Location: *
(28.2408°N, 53.4600°E)
Time: 03:23:50
(UTC+00:00)

Cosmos 2333 Rocket - Pass Details

Date: 22 September 2019
Orbit: 840 x 862 km, 70.8° (Epoch: 15 October)

Event Time Altitude Azimuth Distance (km) Brightness Sun altitude
Rises 15:23:08 0° 339° (NNW) 3,421 5.8 -14.0°
Reaches altitude 10° 15:25:35 10° 339° (NNW) 2,486 5.0 -14.5°
Maximum altitude 15:31:18 84° 252° (WSW) 866 2.3 -15.8°
Drops below altitude 10° 15:37:02 10° 165° (SSE) 2,486 4.4 -17.0°
Sets 15:39:29 0° 164° (SSE) 3,421 5.1 -17.5°
